User: anonymous   Login
Location: Caltech
(34.1382°N, 118.1253°W)
Time: 13:37:35
(UTC-07:00)
Language:

CZ-2C R/B - Orbit

View from above orbital plane
View from above orbital plane
View from above satellite
View from above satellite

Ground track
Ground track

The orbit data is extracted from the following two-line orbital elements,

1 36089U 09061B   18113.96425337 +.00000110 +00000-0 +38580-4 0  9995
2 36089 098.0704 107.2334 0082328 167.7758 246.0823 14.49723881446646
Epoch (UTC): 23 April 2018 23:08:31
Eccentricity: 0.0082328
inclination: 98.0704°
perigee height: 668 km
apogee height: 785 km
right ascension of ascending node: 107.2334°
argument of perigee: 167.7758°
revolutions per day: 14.49723881
mean anomaly at epoch: 246.0823°
orbit number at epoch: 44664

The dashed part of the orbit path shows where the satellite is in the earth's shadow,  

DLR